Clovis Cannon AFB, NM

1:01 PM MDT on April 27, 2017 (GMT -0600)
Cannon Air Force Base

Weather History for KCVS - November, 2012

Change the Weather History Date:

Friday, November 30, 2012

  Actual Average Record
Temperature  
Mean Temperature 56 °F -  
Max Temperature 72 °F 53 °F 72 °F (2012)
Min Temperature 40 °F 29 °F 17 °F (2004)
Degree Days  
Heating Degree Days 9    
Growing Degree Days 6 (Base 50)    
Moisture  
Dew Point 23 °F    
Average Humidity 30    
Maximum Humidity 47    
Minimum Humidity 14    
Precipitation  
Precipitation 0.00 in - - ()
Sea Level Pressure  
Sea Level Pressure 29.96 in    
Wind  
Wind Speed 15 mph (West)    
Max Wind Speed 21 mph    
Max Gust Speed 31 mph    
Visibility 10 miles    
Events      
Averages and records for this station are not official NWS values.
T = Trace of Precipitation, MM = Missing Value Source: NWS Daily Summary

Daily Weather History Graph

Daily Weather History Graph

Search for Another Location

Airport or City:

Trip Planner

Search our weather history database for the weather conditions in past years. The results will help you decide how hot, cold, wet, or windy it might be!

Date:

Astronomy

Nov. 30, 2012 Rise Set
Actual Time 6:41 AM MST 4:43 PM MST
Civil Twilight 6:13 AM MST 5:10 PM MST
Nautical Twilight 5:42 AM MST 5:41 PM MST
Astronomical Twilight 5:12 AM MST 6:12 PM MST
Moon 6:39 PM MST (11/30) 8:14 AM MST (11/30)
Length of Visible Light 10h 57m
Length of Day
10h 02m
Waning Gibbous, 96% of the Moon is Illuminated
Nov 30
Waning Gibbous
Dec 6
Last Quarter
Dec 13
New
Dec 19
First Quarter
Dec 28
Full

Hourly Weather History & Observations

Time (MST) Temp. Windchill Dew Point Humidity Pressure Visibility Wind Dir Wind Speed Gust Speed Precip Events Conditions
12:58 AM 47.3 °F - 22.5 °F 38% 29.95 in 10.0 mi WNW 17.3 mph - N/A   Clear
1:58 AM 46.2 °F 40.5 °F 22.1 °F 39% 29.96 in 10.0 mi WNW 12.7 mph - N/A   Clear
2:58 AM 45.3 °F 39.3 °F 21.9 °F 40% 29.96 in 10.0 mi WNW 12.7 mph - N/A   Clear
3:58 AM 44.1 °F 38.1 °F 21.9 °F 42% 29.96 in 10.0 mi WNW 11.5 mph - N/A   Clear
4:58 AM 40.6 °F 34.3 °F 21.6 °F 47% 29.98 in 10.0 mi WNW 10.4 mph - N/A   Clear
5:58 AM 44.1 °F 38.6 °F 22.6 °F 43% 30.00 in 10.0 mi WNW 10.4 mph - N/A   Clear
6:58 AM 44.1 °F 38.1 °F 23.2 °F 44% 30.03 in 10.0 mi WNW 11.5 mph - N/A   Clear
7:58 AM 46.9 °F - 24.6 °F 42% 30.02 in 10.0 mi West 12.7 mph - N/A   Clear
8:58 AM 54.1 °F - 26.6 °F 35% 30.03 in 10.0 mi West 13.8 mph - N/A   Clear
9:58 AM 60.3 °F - 27.3 °F 29% 30.02 in 10.0 mi West 18.4 mph 25.3 mph N/A   Clear
10:58 AM 67.3 °F - 28.4 °F 23% 29.99 in 10.0 mi WNW 18.4 mph 25.3 mph N/A   Clear
11:58 AM 69.8 °F - 27.3 °F 20% 29.96 in 10.0 mi West 19.6 mph 31.1 mph N/A   Clear
12:58 PM 71.6 °F - 25.2 °F 18% 29.91 in 10.0 mi West 19.6 mph - N/A   Clear
1:58 PM 72.1 °F - 23.7 °F 16% 29.91 in 10.0 mi WSW 20.7 mph - N/A   Clear
2:58 PM 72.3 °F - 20.7 °F 14% 29.89 in 10.0 mi West 20.7 mph - N/A   Clear
3:58 PM 71.1 °F - 21.6 °F 15% 29.89 in 10.0 mi West 18.4 mph 25.3 mph N/A   Clear
4:58 PM 66.2 °F - 20.5 °F 17% 29.92 in 10.0 mi West 15.0 mph - N/A   Clear
5:58 PM 60.6 °F - 20.7 °F 21% 29.92 in 10.0 mi WSW 15.0 mph - N/A   Clear
6:58 PM 53.1 °F - 19.9 °F 27% 29.96 in 10.0 mi WSW 10.4 mph - N/A   Clear
7:58 PM 57.6 °F - 19.2 °F 23% 29.95 in 10.0 mi West 17.3 mph - N/A   Clear
8:58 PM 52.9 °F - 19.0 °F 26% 29.95 in 10.0 mi WSW 11.5 mph - N/A   Clear
9:58 PM 51.8 °F - 19.9 °F 29% 29.94 in 10.0 mi West 13.8 mph - N/A   Clear
10:58 PM 46.2 °F 40.8 °F 20.1 °F 35% 29.93 in 10.0 mi West 11.5 mph - N/A   Clear
11:58 PM 55.6 °F - 20.8 °F 26% 29.91 in 10.0 mi WSW 17.3 mph 25.3 mph N/A   Clear